Wind_Speed
13 11 10 9 10 12 15 19 21 20 18 18 17 16 17 17 17 18 19 20 19 18 18 18 17 17 17 17 17 17 16 16 15 14 13 13 13 12 12 12 11 11 12 13 15 15 15 15 13 13 13 13 13 13 12 12 12 11 11 10 10 11 11 11 11 11 11 10 10 9 9 8 8 7 7 7 7 7 7 7 7 7 7 7 7
12 10 9 9 9 10 12 16 20 21 20 19 19 19 19 19 19 19 20 21 21 20 19 19 19 19 19 19 18 17 17 16 15 14 13 13 13 12 12 12 12 11 12 13 15 16 15 15 14 13 13 13 13 13 12 11 11 11 12 12 11 11 12 11 11 11 11 11 11 10 9 8 8 7 7 7 7 7 7 7 7 6 6 6 6
12 12 11 11 11 11 11 14 19 22 21 21 21 21 20 20 20 20 21 22 22 22 21 21 20 20 19 18 18 17 16 16 15 14 13 13 13 12 11 12 12 12 12 13 14 15 15 15 13 12 12 12 12 12 11 10 11 11 12 13 13 13 13 12 12 12 12 11 11 10 9 8 8 8 7 7 7 7 7 7 7 7 6 6 6
16 16 15 14 12 12 12 14 18 22 23 22 22 21 21 21 21 21 22 23 23 23 22 22 20 19 18 17 16 16 15 15 14 14 13 13 13 12 11 12 12 12 12 12 13 14 15 14 12 11 11 11 10 10 10 10 11 11 12 13 13 13 13 13 12 12 12 11 11 10 10 9 8 8 8 8 8 8 8 7 7 7 7 6 6
21 20 18 16 14 14 14 16 18 22 24 23 23 22 22 23 23 24 24 25 25 25 23 21 19 17 16 16 15 15 14 14 15 14 14 13 13 12 11 11 12 12 12 12 12 13 13 13 12 10 10 10 10 9 9 10 10 10 11 11 12 12 12 12 11 11 10 10 10 9 9 8 8 8 8 8 8 8 9 9 8 7 7 6 6
23 21 19 17 15 15 15 16 18 22 25 25 24 24 25 25 26 26 26 26 26 26 24 22 19 17 16 16 16 16 16 17 17 16 15 14 13 12 11 11 12 12 12 12 12 12 13 13 12 11 11 11 10 10 10 10 10 10 10 11 11 11 11 11 10 9 9 9 9 9 8 8 8 8 8 8 8 9 9 9 8 8 7 7 6
23 20 18 16 13 12 12 14 18 23 27 28 27 26 26 26 27 27 27 27 27 26 24 22 20 18 17 17 18 19 20 20 19 17 16 15 14 13 12 12 12 13 13 13 12 13 13 13 12 12 12 12 12 11 11 11 10 10 10 11 11 11 11 11 11 11 10 10 11 11 11 10 10 10 10 10 10 10 10 9 9 8 8 7 7
24 20 17 16 14 13 13 15 18 23 28 30 29 28 27 27 28 28 28 28 28 26 25 23 21 20 19 19 19 20 21 20 19 18 17 16 15 14 13 13 13 14 14 13 13 13 13 13 13 13 12 12 12 12 11 11 11 11 11 12 12 13 13 12 12 13 12 12 12 12 12 11 11 10 11 11 10 10 10 9 9 8 8 7 7
25 21 19 19 18 18 17 17 20 23 28 31 31 31 29 28 29 29 29 29 28 26 25 24 23 22 21 21 21 21 21 20 19 18 18 17 16 15 14 13 14 14 14 14 14 13 13 13 13 13 12 12 12 12 11 10 10 10 10 11 12 13 13 13 13 14 13 13 12 11 11 11 10 10 10 10 10 9 9 9 8 8 7 7 8
25 23 21 22 22 22 21 20 20 21 26 31 33 32 31 30 29 29 29 29 28 27 26 25 24 23 22 22 22 22 21 20 19 18 18 18 17 16 15 14 14 14 14 14 14 13 13 13 12 12 12 11 11 11 10 10 9 9 9 10 11 12 13 13 13 13 13 12 12 11 10 10 10 10 9 9 9 9 8 8 8 8 7 7 7
26 25 23 25 25 23 20 19 19 20 23 28 32 33 32 31 30 30 30 29 29 28 26 25 25 24 24 23 23 23 21 20 19 18 18 18 18 17 16 15 14 14 14 14 14 13 12 12 12 11 11 11 11 11 10 10 10 9 9 9 9 10 11 12 12 12 11 11 10 10 9 10 10 11 11 10 10 9 9 8 8 7 7 7 7
28 27 26 27 27 23 19 17 17 17 18 23 28 31 32 32 30 30 30 29 29 29 28 27 26 26 26 25 24 23 21 20 19 19 19 19 19 18 17 16 15 14 14 13 13 12 11 11 11 11 11 11 11 11 11 10 10 10 9 9 9 9 9 10 10 10 9 9 8 9 9 9 10 11 12 12 11 10 9 9 8 8 7 7 7
30 29 29 29 27 23 19 16 15 15 16 19 24 28 30 31 30 30 29 29 29 29 29 28 27 27 27 26 25 23 21 20 20 20 19 19 19 18 17 17 16 15 14 13 11 10 10 10 10 10 10 11 11 11 10 10 10 10 9 9 9 8 9 9 9 9 8 7 7 8 9 10 11 12 12 13 12 11 10 10 9 9 8 7 7
32 31 31 30 27 24 20 17 16 15 17 19 22 26 28 30 30 29 29 29 30 30 30 30 29 29 29 28 26 23 21 21 20 20 20 19 18 18 18 17 16 15 13 11 10 9 9 9 10 10 11 10 10 10 10 9 9 9 9 9 8 8 8 8 8 8 7 7 6 7 8 9 11 11 12 12 12 12 11 10 10 9 9 8 7
34 33 32 30 28 26 22 19 18 17 18 20 22 24 27 29 30 29 29 29 30 31 31 31 31 31 30 29 26 23 22 21 21 21 21 20 19 19 18 18 17 15 13 12 10 10 9 10 11 11 11 11 10 9 9 8 8 7 7 7 7 7 7 7 7 7 7 6 6 6 7 8 10 11 11 11 12 11 11 10 10 9 8 8 7
35 34 32 30 28 26 23 20 20 20 19 19 20 22 25 29 30 30 29 30 30 31 32 32 32 32 31 29 27 25 23 22 22 22 22 21 20 20 19 19 17 15 14 13 12 11 12 13 14 14 14 13 12 11 10 9 7 7 6 6 6 5 5 5 5 6 5 5 4 4 5 6 8 9 9 10 11 11 11 10 10 9 8 7 6
35 34 32 30 29 27 24 21 22 21 18 18 19 21 24 29 32 32 31 31 31 32 33 33 33 33 31 29 27 25 25 25 25 24 23 22 21 21 20 19 17 16 15 15 14 14 16 17 17 17 16 14 13 12 11 9 8 7 6 5 5 4 4 4 4 4 3 3 3 2 3 4 6 7 8 9 10 10 10 10 9 9 8 7 6
36 35 34 33 31 29 26 23 23 22 19 19 20 21 23 27 32 34 33 32 32 33 34 35 34 34 32 30 27 26 27 27 27 26 24 22 22 22 21 20 18 17 17 17 16 17 19 19 18 16 15 13 11 9 8 7 6 5 4 4 3 3 3 3 3 2 2 2 2 1 2 2 4 6 7 8 9 10 10 9 9 8 8 7 6
38 37 37 35 33 31 28 25 24 24 22 21 21 22 23 26 30 34 34 34 35 36 37 36 36 35 33 30 29 28 29 29 28 26 24 23 23 22 21 21 20 19 19 19 19 19 20 20 18 16 14 12 10 8 7 6 5 5 4 5 4 4 4 4 4 3 3 3 3 3 2 2 3 4 6 8 9 10 10 9 8 8 7 6 5
39 38 38 37 35 33 30 27 26 25 24 23 22 21 23 25 28 32 35 36 36 37 38 38 37 36 34 32 30 30 30 29 28 26 25 24 24 23 22 22 21 20 21 21 20 21 22 21 19 17 14 12 10 8 6 5 6 6 6 6 6 7 7 7 6 5 5 5 5 5 4 4 4 3 4 6 9 10 10 9 9 8 7 6 5
40 39 39 38 37 35 32 30 28 28 27 26 24 23 23 25 27 30 34 35 35 35 37 38 38 37 35 33 32 32 32 30 28 27 26 25 24 24 23 22 21 21 22 22 22 22 23 22 20 17 15 12 10 8 6 6 6 7 7 7 7 8 8 8 8 7 7 7 8 7 6 6 6 5 4 5 8 10 11 10 9 8 6 5 4
40 40 39 38 38 37 35 33 32 31 30 28 27 25 24 24 25 28 32 34 34 34 36 37 38 37 36 34 34 34 33 31 29 28 27 26 25 25 25 23 22 22 23 23 23 23 23 23 21 18 16 13 11 9 8 7 8 8 8 8 8 8 8 9 8 8 7 8 9 9 8 8 8 6 4 4 6 9 11 11 9 8 6 5 5
40 39 39 39 38 37 36 35 35 33 31 29 29 27 25 23 25 27 30 33 34 34 35 37 38 38 37 36 35 34 33 32 30 29 28 27 27 27 26 25 24 25 25 25 24 24 24 24 22 20 17 15 13 11 10 9 9 9 9 9 8 8 9 9 9 9 8 9 10 10 10 10 9 7 5 3 4 7 11 12 10 8 7 6 5
39 38 39 39 38 39 38 37 36 35 33 32 31 29 27 26 25 26 28 32 35 36 36 37 38 39 39 38 36 35 34 33 31 29 29 28 28 28 27 26 26 26 26 26 25 25 25 25 23 21 19 17 14 12 11 10 9 9 10 10 9 9 9 10 10 10 10 10 10 10 10 11 9 7 4 3 4 6 10 12 11 9 7 6 5
40 40 39 39 39 39 38 37 36 36 35 34 33 31 30 28 26 25 27 30 34 36 36 36 37 39 40 39 37 36 35 33 32 30 30 29 29 28 27 27 27 27 28 28 27 26 26 26 25 23 21 18 16 13 12 11 10 10 10 11 11 11 11 11 11 11 11 11 10 9 10 11 9 5 4 4 5 7 10 12 11 9 8 6 4
43 42 41 40 40 39 37 36 36 37 37 36 35 34 32 30 28 26 27 29 33 36 36 36 37 39 40 39 37 36 35 34 33 32 31 31 30 29 28 28 28 28 29 28 28 27 28 27 26 24 22 19 17 14 13 12 11 10 11 12 13 13 13 12 12 12 11 11 10 9 10 11 8 5 4 5 6 7 9 11 11 10 8 6 4
44 43 43 41 40 39 37 36 36 37 38 37 36 35 34 32 30 28 27 29 32 35 36 37 37 38 39 39 38 37 36 35 34 33 33 32 30 30 29 28 28 29 30 29 28 29 29 29 27 25 22 20 17 15 14 13 11 11 12 13 14 14 14 14 13 12 11 10 9 9 10 11 7 5 5 6 7 8 9 11 12 11 9 6 4
47 46 44 42 40 39 37 36 36 38 39 39 38 37 35 34 32 29 29 29 31 34 36 37 37 37 38 38 39 38 37 36 35 35 34 32 31 31 30 29 29 30 30 30 29 30 30 29 28 25 22 20 18 16 15 14 13 13 13 13 14 15 15 14 14 13 11 10 9 9 10 10 8 6 7 7 8 10 10 12 12 10 8 6 5
50 48 46 44 41 40 38 38 38 39 40 41 40 39 38 37 34 31 30 30 31 33 36 37 37 36 36 38 39 39 38 38 37 36 34 33 32 32 31 30 29 30 31 31 30 30 30 29 27 25 23 20 18 17 16 15 14 14 14 13 13 14 14 14 13 13 11 10 9 9 10 10 8 8 8 8 9 11 11 11 11 9 7 6 5
52 50 48 45 43 41 40 40 40 39 39 40 41 41 40 38 35 32 30 30 31 33 36 37 36 35 35 38 39 40 39 39 37 36 35 34 34 33 32 31 30 31 32 32 31 30 30 30 28 26 23 21 19 18 17 16 15 14 13 12 12 13 13 13 13 12 11 10 9 9 10 10 9 9 10 10 10 10 10 10 10 9 8 7 5
54 52 50 48 46 45 44 43 42 40 38 38 39 40 40 39 36 33 31 31 31 32 35 37 36 35 36 37 39 39 40 39 38 37 36 35 34 33 33 32 31 32 33 33 32 31 31 31 29 27 24 22 20 19 19 17 16 14 13 12 12 12 12 12 12 12 11 10 10 10 11 11 10 10 10 11 11 11 10 9 9 9 8 6 5
56 54 52 50 49 48 47 45 43 41 37 35 37 40 40 38 35 32 32 32 32 32 34 36 37 36 36 37 37 39 39 39 39 38 37 36 35 34 33 32 32 32 33 33 33 33 33 32 30 27 25 24 22 21 20 18 17 15 14 13 12 12 12 12 12 11 11 10 10 10 11 12 11 10 11 12 12 11 10 9 9 9 8 6 5
56 55 53 52 52 51 50 47 45 43 38 34 36 38 38 37 34 33 34 33 32 33 34 36 37 37 37 36 37 37 38 38 39 38 38 37 36 34 32 32 33 33 34 34 34 34 34 32 30 29 27 25 23 22 20 19 18 16 15 13 13 13 13 12 12 11 11 10 10 10 11 12 11 10 11 12 13 12 10 9 9 9 8 7 6
56 55 54 54 53 51 50 49 47 43 38 35 36 37 38 37 35 34 35 34 34 34 35 35 36 37 37 37 37 36 36 37 37 38 38 38 36 34 32 32 33 34 34 34 35 35 35 33 32 30 28 26 25 23 21 20 19 17 15 14 14 14 14 13 13 12 12 11 10 11 12 12 11 10 11 12 13 12 11 10 10 10 9 7 6
56 56 55 54 53 51 48 47 45 42 39 38 38 38 39 39 36 34 35 35 35 35 35 35 36 36 37 37 37 36 36 36 37 38 38 37 35 34 32 33 33 34 34 35 35 36 35 34 33 31 29 27 26 24 22 21 20 18 17 15 15 15 14 14 14 13 12 11 11 12 12 12 11 11 12 13 13 13 12 11 11 10 9 9 8
57 56 56 55 53 50 47 45 45 43 41 40 38 38 40 39 36 35 36 36 35 36 36 36 36 36 36 36 36 36 36 36 37 37 37 36 35 33 32 33 34 34 34 34 35 35 34 33 33 31 29 27 26 25 23 22 21 19 18 16 15 15 15 15 15 14 13 12 11 11 12 12 11 12 13 14 14 14 13 12 11 11 10 10 10
58 57 56 55 53 50 47 46 46 45 43 41 39 39 41 40 38 37 36 35 35 36 36 36 36 35 35 35 35 35 35 36 36 36 36 35 34 33 33 33 34 34 33 33 34 34 33 33 32 31 29 28 27 26 24 23 22 21 19 17 16 16 16 15 15 14 13 12 11 12 13 13 12 13 14 14 14 14 13 13 12 12 12 12 12
58 58 57 55 52 49 47 47 46 44 44 43 41 40 42 42 40 38 37 36 36 36 36 37 36 35 34 34 34 34 35 35 35 35 35 35 34 34 34 33 33 32 32 32 33 33 33 32 32 30 29 29 29 27 25 25 24 22 20 19 17 17 16 15 15 15 13 12 12 13 13 13 13 14 15 15 15 15 15 14 14 15 15 14 15
56 55 53 51 49 47 47 48 47 45 45 44 41 41 44 44 41 40 38 36 36 36 36 36 35 34 34 33 33 34 35 34 34 34 35 35 35 34 34 33 32 32 31 31 32 32 32 31 31 30 30 30 29 28 27 26 25 23 22 20 19 17 17 16 17 16 14 13 14 14 14 14 14 15 16 17 17 17 17 17 17 17 16 17 18
49 46 45 45 46 46 48 50 49 47 46 45 42 43 46 46 44 41 38 36 36 36 36 36 35 34 34 33 32 33 34 34 34 34 35 34 34 34 33 32 31 31 31 30 30 30 30 30 30 30 30 30 30 29 27 27 27 25 24 23 21 19 18 18 18 18 16 15 15 15 16 16 16 17 18 19 19 19 19 20 19 19 18 20 21
39 39 40 41 43 44 46 49 50 49 49 47 44 46 49 48 44 41 37 35 36 36 35 35 34 33 33 33 32 32 33 34 34 35 35 34 33 32 31 30 30 30 29 29 29 29 29 29 30 30 30 30 30 29 29 29 28 27 25 25 23 21 20 20 20 19 18 16 16 16 17 18 18 19 19 20 21 22 22 22 21 21 22 23 23
34 36 38 39 40 42 45 47 48 50 52 50 46 48 50 47 43 39 37 36 36 35 34 33 32 32 32 32 31 31 32 33 34 34 33 33 31 30 29 29 29 29 29 29 28 28 29 29 30 30 30 31 31 30 30 29 29 28 26 26 25 24 23 23 22 21 19 17 17 18 19 20 21 21 21 22 23 24 24 24 24 24 25 25 25
32 33 35 36 38 39 42 44 46 50 53 50 48 50 50 45 40 38 37 37 35 32 32 31 31 31 31 31 31 31 31 31 32 32 31 30 30 29 28 28 29 28 28 28 28 28 28 28 29 29 30 30 30 30 30 29 29 29 28 27 27 26 26 25 23 21 20 19 19 20 21 22 23 23 24 25 26 26 26 26 27 27 26 26 26
34 33 33 34 36 37 38 39 43 49 51 49 50 51 47 41 38 38 38 35 32 31 30 30 30 30 30 30 30 30 30 30 30 30 29 29 28 28 28 28 28 28 27 27 27 27 27 27 28 28 29 29 30 30 30 29 29 29 29 29 29 28 27 25 23 21 21 21 21 21 21 22 24 25 27 27 28 28 28 28 29 28 27 26 26
36 34 33 33 33 35 36 37 41 47 49 49 50 48 42 37 37 38 36 33 31 30 29 29 29 29 29 29 30 30 30 30 30 29 29 28 28 27 27 28 27 27 27 26 26 27 27 27 28 28 29 30 31 31 31 30 31 31 31 31 30 29 26 24 22 22 23 23 22 21 22 24 25 26 27 28 28 28 29 29 29 28 28 27 25
38 34 33 32 33 35 36 38 42 46 47 48 48 44 39 37 37 36 35 33 31 30 28 28 28 28 29 29 30 31 31 31 31 30 29 29 28 27 27 28 28 27 27 27 27 28 27 28 28 28 29 30 31 31 31 31 30 30 30 30 29 28 25 23 21 22 23 24 24 23 24 25 26 26 27 27 27 28 28 29 28 28 27 26 26
39 35 32 31 32 35 37 40 45 48 47 46 45 41 38 37 37 36 35 34 32 30 29 28 29 29 29 30 30 31 32 32 32 31 30 30 30 29 29 29 28 28 28 27 27 27 27 26 26 26 27 27 27 27 27 26 25 25 25 25 25 25 25 23 22 23 25 26 26 26 27 27 27 27 27 27 27 27 28 27 27 26 27 28 28
40 36 33 31 32 35 39 44 47 48 47 45 43 40 38 38 38 37 36 35 33 32 31 31 31 31 31 30 30 31 33 33 32 32 32 31 31 31 31 30 29 28 27 27 26 26 25 24 24 24 25 25 24 24 23 22 21 20 21 22 23 23 24 23 23 24 26 27 27 27 27 27 26 25 26 26 26 26 26 26 26 27 29 30 32
42 38 35 33 32 35 41 45 47 47 46 45 42 40 40 40 39 38 37 36 35 34 34 34 34 33 32 31 31 32 33 33 33 33 33 32 32 32 32 32 31 30 29 28 27 27 26 25 25 25 26 25 24 24 23 22 21 20 20 20 21 22 24 25 26 26 27 27 27 26 26 25 25 25 25 25 25 26 26 27 28 30 32 33 34
44 40 37 35 34 35 40 45 47 46 46 44 43 42 41 40 39 38 37 37 37 36 36 37 37 36 34 33 33 33 33 34 34 34 33 33 33 33 33 33 33 33 32 32 31 30 29 29 28 28 27 27 26 26 25 24 24 23 23 22 22 22 23 24 25 26 26 26 25 25 25 25 25 26 26 27 28 28 29 30 32 33 34 36 37
46 43 40 38 37 36 39 43 46 46 45 44 43 42 41 40 39 37 36 37 38 39 39 39 39 38 37 37 37 36 36 36 36 36 36 36 35 35 35 36 36 36 35 35 34 34 33 32 32 31 30 30 29 29 28 28 27 27 27 27 26 26 25 25 25 25 26 26 27 27 27 28 28 29 30 31 31 31 31 33 34 35 36 38 40
Wind_Direction
210 215 221 226 226 221 213 205 200 194 190 186 185 184 181 179 179 179 180 177 174 175 175 176 177 179 181 181 179 176 173 171 165 161 158 151 145 138 131 123 119 121 126 127 128 127 125 123 121 118 115 111 109 108 108 108 108 108 108 110 110 111 111 110 109 108 108 111 113 115 117 121 124 126 126 123 121 121 119 116 115 115 115 115 111
209 217 222 224 225 223 218 210 203 197 192 188 185 185 184 182 180 179 181 180 178 178 178 179 182 183 184 183 179 176 173 170 164 160 156 149 144 138 131 125 122 126 131 132 132 130 127 125 124 121 117 113 111 110 108 106 105 107 109 108 108 107 107 108 109 109 108 109 110 111 114 115 115 116 117 116 116 116 114 113 113 111 110 108 105
207 214 216 218 215 212 212 209 204 199 196 193 189 186 185 183 182 180 182 183 182 182 182 183 186 187 185 183 180 175 171 167 162 159 156 150 144 139 134 129 127 131 139 140 137 133 129 127 125 122 118 115 113 110 108 106 107 109 111 110 108 107 107 108 109 108 106 105 105 105 107 109 109 108 108 106 106 106 104 103 102 101 100 98 99
205 211 213 216 213 208 207 205 202 201 200 198 193 189 187 185 183 184 185 184 184 186 187 187 188 188 185 183 179 174 170 166 163 161 157 152 146 141 138 133 131 136 143 145 141 135 131 129 126 123 119 117 115 112 110 112 113 114 114 112 111 110 109 108 106 105 103 102 101 100 100 102 103 101 100 98 96 95 93 92 92 93 93 92 92
209 210 211 214 211 208 207 205 201 198 199 201 196 191 190 188 186 187 187 186 187 189 190 190 190 188 185 184 179 174 172 169 169 168 161 154 146 140 139 137 136 139 145 148 145 140 135 132 130 126 123 121 118 117 116 117 118 119 118 115 113 112 110 108 106 105 104 103 100 98 98 97 95 92 92 92 91 89 87 85 84 84 84 83 80
219 216 213 214 214 214 213 210 204 197 197 201 199 195 192 190 190 189 188 188 189 190 190 191 190 187 186 186 183 178 178 178 176 171 161 151 144 140 139 139 139 141 146 150 148 144 139 136 134 131 128 124 122 121 120 121 122 123 124 121 119 116 114 113 111 108 105 104 100 97 95 92 88 87 88 88 86 84 84 83 81 78 75 73 70
227 225 218 216 219 223 222 216 208 200 198 198 200 199 195 193 192 191 190 191 192 191 190 191 189 187 187 190 187 183 184 183 177 168 157 149 145 143 142 142 142 143 147 150 149 146 142 139 138 135 132 128 125 123 122 123 122 123 124 124 123 121 120 119 116 112 108 105 103 99 94 90 88 87 87 85 83 83 82 80 77 74 70 69 70
231 229 221 215 216 220 220 215 210 204 200 198 198 200 198 195 194 194 193 193 193 191 190 190 189 187 189 191 190 190 190 185 176 166 157 152 149 148 147 146 145 144 146 150 150 148 145 143 142 140 137 133 130 128 126 125 124 123 124 124 124 124 125 124 121 117 114 109 105 102 95 90 87 85 83 81 80 79 79 77 77 77 77 79 81
231 231 223 215 213 216 217 213 212 208 202 198 198 200 199 197 197 195 194 195 194 192 189 190 189 188 190 191 192 194 194 188 179 169 162 158 154 152 153 151 148 147 147 149 149 149 147 145 145 145 144 141 137 136 134 131 129 127 127 128 129 130 130 130 127 124 119 112 107 103 99 93 88 84 82 81 80 80 80 83 87 89 90 90 91
229 230 227 223 219 219 218 213 213 212 206 201 199 200 199 198 198 198 196 195 194 193 191 190 189 188 190 193 195 197 195 190 183 176 169 165 160 159 159 157 155 152 151 152 151 150 149 148 150 151 151 150 148 147 146 144 141 138 136 137 137 138 138 136 133 128 121 115 109 104 101 98 96 92 90 89 90 92 93 96 98 99 100 98 96
226 226 226 228 228 226 224 218 216 215 211 206 202 201 200 198 198 199 199 196 194 193 192 190 189 189 191 195 197 198 196 192 187 181 176 171 168 166 165 163 162 161 160 160 158 158 156 155 155 156 157 158 158 158 157 156 154 151 149 149 149 149 147 143 138 131 124 118 114 109 106 105 105 105 104 102 101 104 105 105 106 106 105 104 100
224 224 224 228 232 233 231 227 223 220 216 213 208 204 201 199 198 199 200 198 196 194 192 191 190 190 192 196 198 198 196 193 190 186 181 177 174 171 169 168 168 168 169 169 168 168 166 165 164 164 164 166 167 166 165 164 162 160 159 158 158 157 154 150 143 136 131 126 121 117 115 113 114 115 115 114 112 112 112 112 112 109 107 105 103
222 222 223 227 231 234 233 229 227 223 218 216 213 209 205 202 200 199 199 199 197 196 194 192 191 193 195 197 199 198 195 193 191 189 186 183 179 176 174 174 175 175 176 176 176 175 173 172 173 173 174 174 173 172 171 170 168 167 166 163 162 162 160 157 151 148 144 138 130 125 122 122 122 123 125 123 120 119 116 114 112 108 105 104 101
219 221 223 226 229 233 231 227 225 221 217 214 212 210 207 205 203 200 200 199 198 197 197 194 193 195 198 199 199 196 194 194 193 191 190 187 183 182 181 181 181 181 179 178 178 176 173 172 175 177 179 179 178 177 176 176 174 172 170 168 167 167 166 164 160 158 156 151 142 131 128 129 131 133 133 130 128 126 121 116 112 110 109 107 105
216 219 222 225 228 231 230 225 224 223 220 215 212 209 206 204 204 203 201 200 199 198 198 197 196 198 201 201 199 195 193 194 195 195 193 190 187 187 186 186 186 183 179 179 177 173 169 165 165 165 165 167 168 168 170 173 174 173 173 172 173 174 173 171 167 163 162 160 151 140 135 137 140 143 143 141 138 135 130 125 121 119 118 116 114
215 218 222 225 228 231 230 227 226 226 223 220 217 212 206 203 203 203 202 200 199 199 200 200 201 201 202 202 200 196 193 194 197 198 196 194 190 189 190 191 189 183 178 179 176 170 161 154 150 147 145 144 143 142 141 142 144 147 152 159 166 174 177 175 172 167 165 162 157 150 148 151 154 155 156 153 150 146 142 140 137 133 133 131 127
215 218 222 226 229 231 232 232 233 233 229 225 222 217 211 205 202 202 202 200 199 199 200 202 203 204 204 203 201 198 195 195 198 200 199 196 192 191 192 192 190 184 179 179 177 169 160 153 150 147 144 143 141 138 136 133 132 131 133 137 142 150 157 161 166 165 163 159 157 157 163 170 173 173 172 168 164 159 156 156 152 147 149 147 144
216 218 222 225 228 230 231 232 236 237 233 228 225 221 215 209 205 203 202 200 200 200 201 203 204 206 206 203 200 198 198 198 199 200 200 198 195 194 194 193 191 186 182 181 178 172 166 161 160 158 156 156 154 153 152 149 150 154 159 163 163 165 168 171 177 181 184 185 186 194 190 188 188 188 187 185 180 174 170 171 165 159 159 157 152
216 218 221 224 227 230 230 231 235 237 236 232 228 225 221 215 210 207 204 201 201 200 201 202 204 206 207 204 200 199 200 200 200 200 199 199 199 197 196 196 194 187 183 183 182 177 173 171 171 170 168 170 171 173 174 175 181 195 210 217 219 220 220 222 223 228 241 253 258 260 257 245 227 207 200 200 196 187 181 182 178 170 167 161 153
217 218 221 224 226 228 230 232 234 237 238 236 232 228 226 221 215 210 208 206 204 202 201 202 204 205 206 205 201 200 202 202 201 199 198 200 200 199 200 199 195 188 186 187 185 182 181 179 178 178 179 181 185 188 192 196 200 208 219 229 234 236 238 241 242 244 252 262 267 270 269 266 263 249 223 214 210 200 192 191 188 179 173 164 150
217 218 221 224 225 226 228 231 233 234 236 236 234 230 228 226 221 216 213 210 208 206 205 205 205 205 205 205 203 203 203 203 201 199 199 200 200 200 202 201 195 190 189 190 188 186 186 185 183 185 188 192 197 203 209 212 213 215 220 226 234 240 245 249 250 252 252 257 266 272 271 270 274 272 252 225 216 208 200 198 195 185 176 165 150
217 218 221 223 224 225 225 228 232 234 235 237 237 235 232 230 226 221 217 214 212 210 208 208 208 207 206 205 204 205 205 205 202 200 200 200 200 201 203 201 196 193 192 193 192 191 190 189 188 191 196 201 208 217 225 224 220 223 227 230 236 243 249 253 258 259 255 257 268 276 278 278 282 284 275 241 220 210 201 199 199 191 180 169 161
215 217 219 222 224 225 225 226 230 234 235 236 239 239 237 235 230 225 220 216 215 213 211 210 210 209 208 207 206 207 208 208 205 203 202 201 201 203 204 201 198 196 194 195 196 194 193 193 194 197 202 207 215 224 232 232 226 228 235 239 243 247 251 255 261 263 260 260 268 275 279 282 287 291 286 259 221 204 197 196 197 193 183 173 166
214 216 218 220 222 224 224 224 226 230 232 233 237 238 237 236 234 230 224 218 216 214 213 213 212 211 210 209 208 208 210 211 209 206 204 204 204 205 205 204 201 197 196 197 198 197 196 197 200 204 209 214 220 226 232 234 231 235 244 247 249 250 252 257 262 265 263 262 267 272 275 278 285 291 285 252 209 193 189 188 190 190 182 173 168
212 214 216 219 221 223 224 225 224 225 229 231 233 235 237 237 236 234 229 223 218 215 214 214 213 213 212 211 209 209 211 213 213 211 208 207 207 207 207 206 203 199 198 199 200 198 199 202 206 211 214 218 224 228 229 231 232 239 249 253 254 254 254 258 263 265 265 266 269 268 269 273 280 282 264 233 200 188 182 180 182 182 177 175 175
209 212 215 218 222 224 225 225 224 223 225 229 231 233 236 237 237 235 232 228 222 217 214 214 215 215 214 213 211 211 212 214 215 215 213 211 210 209 210 209 205 201 201 201 201 200 202 206 210 214 218 221 227 229 229 229 232 240 249 254 257 259 259 261 265 267 269 272 272 266 264 270 275 264 239 217 197 187 177 172 174 175 176 180 180
208 212 215 218 222 225 225 223 223 223 223 225 229 232 234 236 237 236 234 231 225 219 215 215 216 216 215 214 213 213 214 216 218 218 217 215 214 213 213 211 206 204 204 203 202 202 205 210 214 217 220 224 229 231 230 229 233 240 246 252 257 262 265 267 269 272 274 277 274 265 262 265 265 248 228 208 191 185 175 169 171 173 179 187 184
207 211 214 217 220 224 225 223 221 221 222 223 226 229 231 234 235 236 235 234 229 222 217 216 217 217 215 215 215 214 215 217 219 220 220 219 218 217 217 214 209 206 206 205 204 205 208 212 216 220 223 227 231 232 230 229 233 238 243 249 255 262 267 270 274 276 278 279 273 262 258 257 252 238 226 209 191 183 176 172 174 178 187 194 191
208 210 213 216 218 222 225 226 223 221 221 222 224 226 229 231 233 235 236 235 231 224 219 218 218 217 216 216 216 215 216 218 220 221 222 222 221 221 221 219 214 210 209 208 208 208 211 215 219 222 225 229 233 232 229 230 234 236 240 246 253 260 266 269 273 277 279 277 270 259 252 246 239 231 226 214 197 187 181 181 184 190 199 204 200
207 209 211 213 216 219 223 227 227 224 221 221 222 225 228 231 233 236 238 238 235 228 222 220 220 218 217 217 217 217 217 218 220 222 224 224 224 224 224 223 219 215 212 212 212 212 214 218 222 224 228 232 234 231 229 233 235 236 240 246 252 259 263 266 270 273 275 274 267 255 244 236 230 229 228 220 208 200 196 197 202 206 207 209 208
207 209 210 212 214 216 219 224 228 227 222 219 221 224 227 231 232 235 238 239 238 233 226 222 221 220 219 218 218 218 219 220 220 222 224 226 226 226 226 226 224 221 217 216 215 216 218 221 224 226 230 234 234 231 231 236 239 238 240 246 252 258 262 265 268 270 271 270 264 250 237 231 230 231 230 226 222 219 216 214 216 216 213 212 216
208 209 210 212 214 216 217 220 224 227 225 219 219 222 226 229 231 233 236 239 239 236 230 226 223 222 221 221 220 220 221 222 222 223 225 226 227 227 227 227 227 226 223 220 220 220 222 224 226 228 232 236 236 233 234 240 242 241 242 247 254 260 265 267 268 269 268 266 259 244 232 232 236 236 232 230 230 232 231 225 223 226 224 220 218
210 211 211 212 214 215 216 218 221 225 226 221 217 220 224 227 228 230 234 237 239 237 234 230 226 224 224 224 224 223 223 224 224 225 226 227 228 229 229 229 229 228 227 225 224 225 226 227 228 231 234 237 237 235 237 241 244 244 245 250 257 263 268 270 271 270 267 261 252 240 233 237 244 243 236 234 237 239 237 232 231 234 234 231 231
212 213 213 213 213 214 215 216 219 222 223 219 216 216 221 224 224 225 230 234 236 236 235 233 230 227 226 226 226 226 226 227 227 226 227 228 228 229 230 229 229 229 229 228 227 228 229 230 231 233 236 238 238 237 238 242 245 245 246 250 257 264 270 273 273 271 267 261 250 241 239 243 250 250 244 242 243 243 241 238 237 238 242 248 258
214 215 214 214 215 215 214 215 217 217 217 215 212 213 218 221 221 222 227 231 234 235 236 235 233 231 229 228 228 228 228 229 229 228 228 228 228 229 230 230 230 230 230 229 229 229 231 232 233 235 237 238 239 238 239 242 245 245 246 250 256 263 268 271 273 272 269 265 255 246 245 248 252 252 250 248 247 246 244 242 242 244 251 262 275
216 217 216 216 217 216 215 214 214 213 212 212 210 211 217 221 220 222 226 230 233 235 236 237 236 234 232 230 230 229 230 230 231 230 229 229 229 230 232 232 232 232 231 230 229 230 231 233 234 236 236 238 238 238 240 243 245 245 246 250 255 261 265 269 272 273 271 268 262 253 248 249 252 251 251 251 251 250 249 247 249 253 257 264 277
217 219 220 220 219 217 216 215 213 211 210 210 208 211 217 220 219 221 225 230 233 236 237 237 237 237 235 233 231 230 230 231 231 231 230 230 231 232 234 234 234 234 234 232 230 230 231 233 235 235 235 236 237 238 240 243 245 246 247 250 255 260 266 271 274 275 274 271 266 256 250 250 252 251 252 255 256 256 255 253 254 259 261 266 274
219 221 223 223 221 219 218 219 217 213 211 210 207 209 217 221 221 222 226 231 235 236 237 238 238 239 238 236 233 231 230 231 231 231 231 231 232 234 235 236 236 235 234 231 229 229 230 233 235 235 234 234 236 238 240 243 245 247 249 251 254 260 265 270 273 275 274 270 265 259 253 253 253 252 255 259 259 258 257 256 257 261 264 269 275
220 223 225 225 225 222 220 222 221 217 215 214 209 209 217 222 223 225 228 232 235 236 237 238 239 240 240 239 235 232 230 230 231 230 231 232 233 234 236 237 237 235 233 230 228 228 230 233 234 234 233 233 236 238 241 243 245 247 249 251 254 259 263 267 270 271 270 268 267 264 260 257 254 253 255 258 260 261 260 258 260 263 268 273 277
219 221 221 222 223 222 219 220 221 219 219 217 211 211 219 222 223 226 229 232 235 236 236 237 237 238 240 239 237 233 231 230 230 230 231 232 232 234 236 236 235 233 230 228 228 230 232 233 234 234 232 234 237 240 241 244 246 247 249 252 254 258 261 265 267 269 269 269 268 267 266 262 256 254 255 258 261 263 263 262 264 269 273 275 279
211 211 211 212 215 217 217 218 218 217 218 217 211 213 220 223 224 226 228 231 234 235 235 235 236 238 239 238 237 234 231 230 229 230 231 231 232 233 234 233 231 229 228 229 230 232 233 233 233 233 232 234 238 241 243 245 247 249 251 254 257 259 262 263 266 268 269 269 268 268 267 264 260 259 259 259 261 264 265 267 269 272 274 277 281
206 209 209 209 211 212 213 215 215 213 215 214 210 213 221 224 223 225 228 231 233 233 233 234 236 238 238 237 236 234 231 229 229 229 230 230 231 231 229 227 227 227 228 230 231 232 232 232 232 232 233 235 239 242 245 247 250 252 254 257 260 262 263 264 266 268 268 268 267 265 264 263 263 263 261 259 260 262 266 268 270 271 274 278 281
211 214 212 211 212 210 210 212 212 211 212 210 208 214 221 223 222 224 228 230 230 229 231 234 236 237 237 235 233 231 229 227 227 227 228 228 227 226 225 225 226 228 230 231 232 232 232 232 233 234 235 237 240 244 247 249 252 254 256 259 261 263 264 265 266 265 264 264 263 261 260 261 261 262 260 259 259 261 264 266 268 270 273 276 278
212 214 213 212 212 210 210 210 210 210 209 207 208 214 219 220 222 224 227 228 227 227 230 233 234 235 234 232 230 228 226 225 225 225 225 225 225 224 224 226 228 229 231 231 232 233 234 234 235 236 238 240 242 245 248 251 253 255 258 260 262 263 264 264 263 259 257 258 259 259 258 258 258 258 259 259 259 260 262 264 266 269 271 272 275
211 213 213 211 209 208 207 207 208 209 207 204 207 213 215 217 220 223 225 225 225 226 229 231 231 231 230 229 227 225 224 224 223 223 223 223 224 224 224 226 228 228 229 229 231 232 233 235 237 238 240 242 244 247 250 252 255 257 259 261 263 265 264 262 258 252 250 253 256 257 255 255 255 256 257 258 259 260 261 263 265 268 270 272 277
211 213 212 210 208 206 204 203 205 206 204 204 208 211 212 214 218 222 223 223 223 225 227 228 227 227 225 224 224 223 223 223 222 222 222 222 221 221 221 223 224 224 225 226 229 232 234 236 239 240 242 244 246 249 251 253 256 258 259 261 262 264 263 259 252 246 245 248 250 251 252 253 254 255 255 256 257 259 260 262 264 267 271 277 282
209 211 210 208 206 205 204 202 202 202 203 205 209 211 211 213 217 220 221 221 222 224 226 226 225 224 224 223 222 222 222 222 222 221 222 221 219 217 219 221 222 223 225 229 232 234 236 237 238 239 241 243 246 249 252 255 257 259 260 260 260 260 259 255 248 243 243 244 246 248 251 253 253 254 255 256 257 258 261 263 266 271 276 282 286
208 209 208 206 204 203 203 202 201 203 206 209 211 211 212 215 218 219 220 221 223 225 226 225 224 224 224 223 222 221 220 220 220 219 219 218 216 216 218 220 221 223 224 227 229 230 232 233 235 238 241 245 249 253 257 260 262 263 263 262 259 257 256 253 248 243 242 243 246 249 251 253 254 255 256 256 257 260 263 267 272 277 281 284 287
207 207 206 205 204 202 201 202 203 206 208 210 211 211 214 217 220 221 221 221 223 225 225 224 223 224 224 222 221 220 219 218 217 216 216 217 217 218 219 220 221 222 223 224 227 228 230 232 236 241 246 250 253 257 259 262 264 267 269 267 263 259 257 256 254 252 251 252 253 254 254 255 256 257 258 259 261 265 269 274 277 280 283 285 287
205 205 205 206 206 205 203 202 204 207 210 211 212 213 216 219 221 223 223 223 225 227 226 224 223 224 224 223 222 220 218 217 216 215 215 217 219 220 221 221 222 223 224 226 228 231 232 235 239 243 247 251 253 255 256 259 262 267 270 271 270 267 264 262 261 261 262 261 260 260 260 260 261 262 263 264 266 269 273 276 279 281 284 285 287
203 204 204 204 206 208 207 205 206 208 211 212 214 216 218 219 221 225 226 225 225 226 226 224 223 223 223 223 222 220 218 217 216 216 216 218 219 220 222 223 224 225 227 229 230 233 235 237 241 244 247 249 252 255 255 256 258 261 264 267 269 270 270 270 269 269 269 268 266 265 264 264 265 267 268 269 271 273 276 278 280 282 283 284 285
Height
5907 5909 5910 5910 5911 5912 5913 5914 5916 5917 5918 5919 5920 5921 5923 5924 5925 5927 5928 5930 5931 5932 5934 5935 5935 5936 5937 5938 5939 5940 5941 5942 5943 5944 5944 5945 5945 5946 5946 5946 5947 5948 5948 5948 5948 5948 5949 5949 5950 5951 5951 5951 5951 5951 5951 5952 5952 5952 5952 5952 5953 5953 5953 5953 5953 5953 5953 5954 5954 5954 5954 5955 5955 5955 5956 5956 5956 5956 5956 5957 5957 5957 5957 5957 5957
5907 5908 5909 5910 5911 5912 5913 5914 5915 5916 5917 5918 5919 5920 5922 5923 5925 5926 5928 5929 5931 5932 5933 5934 5935 5936 5937 5938 5939 5940 5941 5942 5943 5944 5945 5945 5946 5946 5947 5946 5947 5948 5949 5949 5949 5949 5950 5950 5951 5952 5952 5952 5952 5952 5953 5953 5953 5953 5953 5954 5954 5954 5954 5954 5954 5954 5954 5955 5955 5955 5955 5955 5956 5956 5956 5956 5957 5957 5957 5957 5957 5957 5957 5957 5958
5906 5907 5908 5908 5909 5910 5912 5913 5914 5915 5916 5917 5918 5919 5921 5922 5924 5926 5927 5928 5930 5931 5932 5933 5934 5935 5937 5938 5939 5941 5942 5943 5944 5945 5945 5946 5946 5946 5947 5947 5947 5948 5949 5950 5950 5950 5950 5951 5952 5952 5953 5953 5953 5954 5954 5954 5954 5954 5955 5955 5955 5955 5955 5955 5956 5955 5955 5955 5955 5956 5956 5956 5957 5957 5957 5957 5957 5957 5957 5958 5958 5958 5958 5958 5958
5904 5905 5906 5907 5908 5909 5910 5911 5912 5914 5916 5917 5918 5919 5921 5922 5923 5925 5926 5927 5929 5930 5932 5933 5934 5936 5937 5939 5940 5942 5943 5944 5944 5945 5945 5946 5946 5947 5947 5947 5947 5948 5950 5951 5951 5951 5951 5951 5952 5953 5953 5953 5954 5954 5955 5955 5955 5956 5956 5956 5956 5956 5956 5956 5956 5956 5956 5956 5957 5957 5957 5958 5958 5958 5958 5958 5958 5958 5958 5958 5959 5959 5959 5959 5959
5902 5903 5904 5906 5907 5908 5909 5910 5911 5913 5914 5916 5917 5919 5920 5921 5922 5923 5924 5926 5928 5929 5931 5933 5935 5936 5938 5940 5941 5942 5944 5944 5945 5945 5945 5946 5947 5947 5948 5948 5948 5949 5950 5951 5952 5952 5951 5952 5952 5953 5953 5954 5954 5955 5956 5956 5956 5956 5957 5957 5957 5957 5957 5957 5957 5957 5957 5958 5958 5958 5958 5959 5959 5959 5959 5959 5959 5959 5959 5959 5959 5960 5959 5959 5960
5902 5902 5903 5904 5905 5906 5907 5908 5909 5911 5912 5914 5916 5917 5918 5919 5921 5922 5923 5925 5927 5928 5931 5933 5935 5937 5938 5940 5941 5942 5943 5943 5944 5945 5946 5947 5947 5948 5949 5949 5949 5950 5951 5952 5953 5953 5952 5952 5953 5954 5954 5954 5955 5955 5956 5956 5957 5957 5957 5957 5957 5958 5958 5958 5958 5958 5959 5959 5959 5959 5959 5960 5960 5960 5960 5959 5960 5960 5960 5960 5960 5960 5960 5960 5960
5901 5902 5903 5904 5905 5905 5906 5907 5908 5909 5910 5912 5914 5916 5917 5919 5920 5921 5922 5924 5926 5928 5930 5932 5934 5936 5938 5939 5940 5941 5942 5942 5943 5945 5946 5947 5948 5949 5950 5950 5951 5951 5952 5953 5953 5954 5953 5953 5954 5954 5955 5955 5955 5956 5957 5957 5957 5957 5957 5958 5958 5958 5959 5959 5959 5960 5960 5960 5960 5960 5960 5960 5960 5961 5961 5960 5961 5960 5960 5961 5961 5961 5961 5960 5960
5901 5902 5903 5903 5904 5904 5905 5905 5906 5907 5908 5910 5912 5914 5916 5918 5919 5920 5922 5923 5925 5927 5930 5932 5934 5935 5937 5938 5940 5941 5941 5942 5944 5945 5947 5948 5949 5950 5951 5951 5952 5952 5953 5954 5954 5954 5954 5954 5955 5955 5956 5956 5956 5957 5957 5958 5958 5958 5958 5958 5959 5959 5959 5960 5960 5961 5961 5961 5961 5961 5960 5961 5961 5961 5961 5962 5962 5961 5961 5961 5961 5962 5962 5961 5961
5900 5901 5902 5902 5902 5902 5902 5903 5904 5905 5906 5908 5910 5912 5914 5916 5918 5919 5921 5923 5925 5927 5929 5931 5932 5934 5935 5937 5938 5940 5941 5942 5944 5946 5947 5948 5949 5950 5951 5952 5952 5953 5953 5954 5955 5955 5955 5955 5956 5956 5957 5957 5957 5958 5958 5959 5959 5959 5959 5959 5959 5960 5960 5961 5961 5961 5962 5962 5962 5961 5961 5961 5962 5962 5962 5962 5963 5962 5962 5962 5963 5963 5963 5963 5963
5898 5900 5901 5900 5900 5900 5900 5901 5903 5904 5905 5906 5908 5910 5912 5915 5917 5919 5920 5922 5924 5926 5928 5930 5932 5933 5935 5936 5937 5939 5941 5942 5944 5946 5947 5948 5949 5950 5951 5952 5953 5953 5954 5955 5955 5956 5956 5956 5956 5957 5958 5958 5958 5959 5959 5960 5960 5960 5960 5960 5961 5961 5961 5962 5962 5962 5962 5962 5962 5962 5962 5962 5962 5963 5963 5963 5963 5963 5963 5964 5964 5964 5964 5964 5964
5897 5898 5899 5899 5899 5899 5899 5901 5902 5903 5904 5905 5907 5908 5911 5913 5915 5918 5919 5921 5923 5925 5927 5929 5931 5932 5934 5935 5937 5938 5940 5942 5944 5945 5946 5948 5949 5950 5951 5952 5953 5954 5954 5955 5955 5956 5956 5956 5957 5958 5958 5959 5959 5960 5960 5960 5961 5961 5961 5962 5962 5962 5962 5962 5962 5962 5962 5962 5963 5963 5963 5963 5963 5963 5964 5964 5964 5964 5964 5965 5965 5965 5965 5965 5965
5895 5896 5897 5897 5897 5899 5900 5901 5902 5902 5904 5905 5906 5908 5909 5912 5914 5916 5918 5921 5923 5924 5926 5928 5930 5932 5933 5934 5936 5938 5940 5941 5943 5945 5946 5947 5948 5949 5951 5952 5953 5953 5954 5955 5955 5956 5956 5956 5957 5958 5959 5960 5960 5960 5961 5961 5961 5961 5962 5962 5962 5963 5962 5962 5963 5963 5963 5963 5963 5963 5964 5964 5964 5964 5964 5965 5965 5965 5966 5966 5966 5966 5967 5966 5966
5892 5894 5895 5895 5896 5898 5900 5900 5901 5902 5903 5904 5905 5907 5909 5911 5913 5915 5917 5920 5922 5924 5925 5927 5929 5931 5932 5933 5935 5937 5939 5940 5942 5943 5945 5946 5948 5949 5950 5951 5952 5953 5954 5955 5955 5956 5956 5957 5957 5958 5959 5960 5960 5961 5961 5961 5962 5962 5962 5963 5963 5963 5963 5963 5963 5963 5964 5964 5964 5965 5965 5965 5965 5965 5965 5965 5966 5966 5966 5967 5967 5967 5967 5967 5967
5890 5891 5893 5894 5895 5897 5899 5900 5900 5901 5901 5902 5904 5906 5908 5910 5912 5914 5916 5918 5920 5922 5924 5926 5927 5929 5930 5932 5934 5936 5938 5939 5941 5942 5944 5946 5947 5948 5950 5951 5952 5952 5953 5954 5955 5956 5957 5957 5957 5958 5959 5959 5960 5961 5962 5962 5962 5962 5963 5963 5963 5964 5964 5964 5964 5964 5964 5965 5965 5966 5966 5966 5966 5966 5966 5966 5966 5967 5967 5967 5968 5968 5968 5968 5968
5887 5889 5891 5893 5894 5896 5897 5899 5899 5899 5900 5901 5902 5904 5906 5909 5911 5913 5915 5917 5919 5921 5923 5925 5926 5927 5929 5931 5933 5935 5936 5938 5939 5941 5943 5944 5946 5947 5949 5950 5951 5952 5953 5954 5955 5956 5956 5957 5957 5958 5959 5960 5960 5961 5962 5962 5963 5963 5963 5964 5964 5964 5964 5965 5965 5965 5965 5965 5966 5966 5967 5967 5967 5967 5967 5967 5967 5967 5967 5968 5968 5968 5968 5968 5968
5884 5887 5889 5891 5893 5894 5896 5898 5898 5899 5899 5900 5901 5903 5905 5907 5909 5911 5913 5915 5917 5919 5921 5923 5925 5926 5928 5930 5931 5933 5935 5937 5938 5940 5942 5943 5945 5946 5948 5949 5950 5951 5953 5954 5955 5955 5956 5957 5958 5958 5959 5960 5961 5961 5962 5963 5963 5963 5964 5964 5964 5965 5965 5965 5965 5965 5966 5966 5966 5967 5967 5968 5968 5968 5968 5968 5968 5968 5968 5968 5968 5969 5969 5969 5969
5883 5886 5888 5890 5891 5893 5895 5897 5898 5898 5899 5900 5901 5902 5903 5905 5906 5908 5910 5913 5915 5917 5919 5921 5923 5925 5927 5929 5930 5932 5934 5935 5937 5938 5940 5942 5943 5945 5946 5948 5949 5951 5952 5953 5954 5955 5956 5957 5958 5959 5960 5961 5961 5962 5963 5963 5964 5964 5964 5965 5965 5965 5965 5966 5966 5966 5966 5966 5967 5967 5967 5968 5968 5968 5968 5969 5969 5969 5969 5969 5969 5969 5969 5969 5969
5881 5884 5886 5888 5889 5891 5893 5895 5896 5897 5899 5899 5899 5900 5902 5903 5904 5906 5908 5911 5913 5915 5917 5919 5921 5923 5925 5927 5929 5931 5932 5933 5935 5936 5938 5940 5942 5944 5945 5947 5948 5950 5951 5952 5954 5955 5956 5957 5958 5959 5960 5961 5962 5962 5963 5963 5964 5964 5965 5965 5965 5966 5966 5966 5966 5966 5967 5967 5967 5967 5967 5967 5968 5968 5969 5969 5969 5969 5969 5969 5969 5969 5969 5969 5969
5879 5881 5883 5885 5887 5889 5891 5892 5894 5896 5897 5898 5898 5899 5900 5902 5903 5905 5907 5908 5909 5911 5913 5916 5919 5921 5924 5926 5928 5929 5930 5932 5933 5935 5937 5939 5941 5942 5944 5946 5947 5949 5950 5951 5953 5954 5955 5956 5957 5958 5959 5961 5962 5963 5963 5964 5964 5964 5965 5965 5966 5966 5966 5966 5966 5967 5967 5967 5967 5967 5967 5967 5967 5968 5968 5968 5969 5969 5970 5970 5970 5970 5970 5970 5970
5876 5879 5880 5883 5886 5887 5889 5891 5892 5894 5895 5896 5897 5898 5899 5900 5901 5903 5905 5906 5907 5909 5911 5914 5916 5919 5922 5924 5926 5928 5929 5930 5932 5934 5936 5937 5939 5941 5943 5944 5946 5948 5949 5950 5951 5953 5954 5955 5956 5957 5959 5960 5961 5962 5963 5963 5964 5964 5964 5965 5965 5966 5966 5966 5966 5967 5967 5967 5967 5967 5967 5966 5967 5967 5967 5968 5968 5969 5969 5970 5970 5970 5970 5970 5970
5873 5876 5878 5881 5883 5885 5887 5888 5890 5891 5892 5894 5896 5897 5898 5899 5900 5902 5903 5905 5907 5909 5911 5912 5915 5917 5920 5922 5924 5926 5927 5929 5931 5932 5934 5936 5937 5939 5941 5943 5945 5947 5948 5949 5950 5952 5953 5954 5955 5957 5958 5959 5960 5961 5962 5963 5963 5964 5964 5964 5964 5965 5965 5966 5966 5966 5967 5966 5966 5966 5966 5966 5966 5966 5966 5967 5967 5968 5969 5969 5970 5970 5970 5970 5971
5870 5873 5875 5878 5880 5883 5885 5886 5886 5888 5890 5892 5894 5895 5896 5898 5899 5900 5902 5904 5906 5908 5909 5911 5913 5916 5918 5920 5922 5924 5925 5927 5929 5931 5932 5934 5936 5938 5939 5941 5944 5945 5946 5948 5949 5950 5952 5953 5954 5955 5957 5958 5959 5960 5961 5962 5962 5963 5963 5963 5963 5964 5964 5965 5965 5965 5966 5966 5966 5966 5966 5965 5965 5966 5966 5966 5966 5967 5968 5969 5970 5970 5971 5971 5971
5867 5870 5872 5875 5877 5880 5881 5883 5884 5886 5888 5890 5891 5893 5895 5897 5898 5899 5900 5902 5904 5906 5908 5909 5911 5914 5916 5918 5920 5922 5924 5926 5927 5929 5931 5932 5934 5936 5938 5940 5942 5943 5945 5946 5947 5949 5950 5952 5953 5954 5955 5957 5958 5959 5960 5961 5961 5962 5962 5962 5962 5963 5963 5964 5964 5965 5965 5965 5965 5965 5965 5965 5965 5965 5965 5965 5965 5966 5967 5969 5969 5970 5971 5971 5971
5864 5867 5869 5871 5873 5875 5877 5879 5881 5883 5885 5887 5889 5891 5892 5894 5895 5897 5899 5900 5902 5903 5905 5907 5910 5912 5913 5915 5918 5920 5922 5924 5926 5928 5929 5930 5932 5934 5936 5938 5939 5941 5943 5944 5946 5947 5949 5950 5952 5953 5954 5955 5956 5957 5958 5959 5960 5961 5961 5961 5961 5962 5962 5962 5963 5964 5964 5964 5965 5965 5964 5964 5964 5964 5965 5965 5965 5965 5967 5968 5969 5970 5970 5971 5971
5860 5863 5865 5867 5869 5871 5874 5877 5879 5881 5883 5885 5887 5888 5890 5891 5893 5895 5897 5898 5899 5901 5903 5905 5907 5909 5911 5913 5916 5918 5921 5923 5925 5926 5927 5928 5930 5932 5934 5936 5937 5939 5941 5942 5944 5946 5947 5948 5950 5951 5952 5953 5955 5956 5957 5958 5959 5959 5960 5960 5960 5960 5961 5961 5962 5962 5963 5963 5964 5964 5964 5964 5964 5964 5964 5964 5964 5965 5966 5967 5968 5969 5970 5970 5971
5856 5859 5861 5863 5864 5867 5871 5874 5877 5879 5881 5883 5884 5886 5887 5889 5891 5893 5894 5895 5897 5899 5901 5903 5904 5906 5909 5912 5914 5917 5919 5921 5923 5924 5926 5927 5928 5930 5932 5934 5936 5937 5939 5941 5942 5944 5945 5946 5947 5949 5950 5952 5953 5954 5955 5956 5957 5958 5958 5958 5958 5959 5959 5960 5961 5961 5962 5962 5963 5963 5963 5963 5963 5964 5964 5964 5964 5964 5965 5966 5968 5969 5969 5970 5970
5853 5855 5857 5859 5861 5863 5867 5871 5874 5876 5878 5881 5882 5883 5885 5887 5888 5890 5892 5893 5894 5896 5898 5900 5902 5904 5907 5910 5912 5915 5917 5919 5921 5922 5924 5925 5927 5928 5930 5932 5934 5935 5937 5939 5940 5942 5943 5944 5946 5947 5949 5950 5951 5953 5954 5954 5955 5956 5956 5956 5957 5957 5957 5958 5959 5960 5961 5961 5961 5962 5962 5962 5962 5963 5963 5963 5963 5964 5965 5966 5967 5968 5968 5969 5969
5848 5851 5853 5856 5858 5861 5863 5867 5870 5872 5875 5877 5879 5881 5883 5884 5886 5888 5889 5891 5892 5894 5896 5898 5899 5902 5905 5908 5910 5912 5915 5916 5918 5920 5922 5924 5926 5927 5928 5930 5932 5934 5935 5937 5938 5940 5941 5942 5944 5945 5947 5948 5950 5951 5952 5953 5954 5954 5954 5955 5955 5955 5956 5957 5957 5958 5959 5960 5960 5960 5961 5961 5961 5962 5962 5963 5963 5963 5964 5965 5966 5967 5967 5968 5968
5843 5847 5850 5853 5855 5858 5861 5863 5865 5868 5871 5874 5876 5878 5880 5881 5883 5885 5887 5889 5890 5892 5894 5896 5898 5900 5903 5905 5907 5909 5911 5913 5915 5918 5920 5922 5924 5925 5926 5928 5930 5932 5933 5935 5936 5938 5939 5941 5942 5944 5945 5947 5948 5949 5950 5951 5952 5952 5953 5953 5954 5954 5954 5955 5956 5956 5957 5958 5959 5959 5959 5960 5960 5961 5961 5962 5962 5963 5963 5964 5965 5966 5966 5967 5967
5839 5842 5846 5849 5852 5855 5858 5860 5862 5864 5867 5870 5873 5875 5877 5879 5881 5883 5885 5887 5888 5890 5892 5894 5896 5898 5900 5902 5904 5906 5908 5910 5913 5915 5917 5919 5921 5923 5925 5926 5928 5930 5931 5933 5934 5936 5938 5939 5940 5942 5943 5945 5946 5947 5948 5949 5950 5951 5951 5952 5952 5952 5953 5953 5954 5955 5955 5956 5957 5958 5958 5959 5959 5960 5960 5961 5961 5962 5963 5964 5964 5964 5965 5965 5966
5834 5838 5841 5845 5848 5851 5854 5856 5858 5861 5864 5867 5870 5872 5875 5877 5879 5881 5883 5884 5886 5889 5891 5892 5894 5896 5897 5899 5901 5903 5905 5908 5910 5912 5914 5916 5918 5920 5923 5924 5926 5928 5929 5931 5933 5934 5936 5937 5938 5940 5941 5943 5944 5945 5946 5947 5948 5949 5950 5950 5950 5951 5951 5952 5952 5953 5953 5954 5955 5956 5957 5958 5958 5959 5959 5960 5960 5961 5962 5963 5963 5963 5964 5964 5964
5830 5833 5837 5841 5844 5847 5850 5853 5856 5859 5862 5865 5867 5869 5871 5874 5877 5879 5881 5882 5884 5886 5888 5890 5892 5894 5895 5897 5899 5901 5903 5905 5908 5910 5912 5913 5915 5918 5920 5922 5924 5926 5927 5929 5931 5932 5934 5935 5937 5938 5940 5941 5942 5943 5944 5945 5946 5947 5948 5948 5949 5949 5949 5950 5950 5951 5951 5952 5953 5954 5955 5956 5957 5958 5958 5959 5959 5960 5961 5961 5962 5962 5962 5962 5963
5827 5830 5834 5837 5840 5842 5846 5850 5853 5856 5859 5863 5865 5867 5869 5872 5875 5877 5878 5879 5882 5884 5886 5887 5889 5891 5893 5895 5897 5898 5901 5903 5905 5907 5909 5911 5913 5915 5918 5920 5921 5923 5925 5927 5929 5930 5931 5933 5935 5936 5938 5939 5940 5941 5942 5943 5944 5945 5946 5947 5947 5947 5948 5948 5948 5949 5950 5950 5951 5952 5954 5955 5955 5956 5957 5957 5958 5958 5959 5960 5960 5960 5960 5961 5961
5824 5827 5830 5833 5836 5838 5842 5846 5850 5853 5857 5860 5862 5864 5867 5868 5870 5873 5875 5876 5879 5881 5882 5884 5887 5889 5891 5893 5894 5897 5899 5901 5903 5905 5906 5908 5911 5913 5915 5916 5918 5920 5922 5924 5926 5927 5929 5931 5933 5934 5935 5937 5938 5939 5940 5941 5942 5943 5944 5945 5945 5946 5946 5946 5946 5947 5948 5948 5949 5950 5952 5953 5954 5955 5955 5956 5956 5957 5957 5958 5958 5958 5959 5959 5959
5821 5824 5827 5830 5832 5836 5840 5844 5847 5851 5854 5856 5858 5861 5862 5864 5867 5870 5872 5874 5876 5877 5879 5881 5884 5886 5888 5890 5892 5894 5896 5898 5900 5902 5904 5906 5908 5910 5912 5914 5915 5917 5919 5921 5923 5924 5926 5928 5930 5932 5933 5935 5936 5937 5938 5940 5941 5942 5943 5943 5944 5944 5944 5944 5945 5945 5946 5947 5947 5949 5950 5951 5952 5953 5953 5954 5954 5955 5956 5956 5956 5956 5957 5957 5957
5818 5820 5824 5827 5830 5834 5838 5842 5845 5847 5849 5852 5855 5858 5859 5861 5864 5867 5869 5871 5873 5875 5877 5879 5881 5883 5885 5888 5890 5892 5894 5896 5897 5900 5902 5904 5906 5908 5910 5911 5912 5914 5916 5918 5920 5922 5924 5926 5927 5929 5931 5932 5933 5935 5936 5937 5938 5939 5941 5942 5942 5942 5942 5943 5943 5943 5944 5945 5946 5947 5948 5949 5950 5951 5952 5952 5953 5953 5954 5954 5954 5954 5955 5955 5955
5814 5817 5820 5823 5827 5832 5836 5838 5841 5843 5846 5850 5853 5854 5856 5857 5860 5864 5866 5868 5870 5872 5874 5876 5878 5880 5883 5885 5887 5889 5891 5893 5895 5897 5900 5902 5904 5905 5907 5908 5909 5911 5913 5915 5917 5919 5921 5923 5924 5927 5928 5930 5931 5932 5934 5935 5936 5937 5939 5939 5940 5940 5940 5941 5941 5941 5942 5943 5944 5945 5946 5947 5948 5949 5950 5950 5950 5951 5951 5952 5952 5952 5952 5952 5952
5811 5813 5817 5821 5826 5831 5834 5836 5838 5841 5844 5846 5849 5851 5852 5854 5858 5861 5863 5865 5868 5870 5872 5874 5876 5878 5880 5882 5884 5886 5888 5890 5892 5895 5897 5899 5901 5902 5903 5905 5907 5909 5911 5912 5914 5916 5918 5920 5922 5924 5926 5927 5928 5929 5931 5932 5933 5935 5936 5937 5937 5938 5938 5938 5938 5939 5940 5941 5942 5943 5944 5945 5946 5947 5947 5947 5948 5948 5949 5949 5949 5949 5950 5950 5949
5807 5811 5815 5819 5823 5827 5830 5832 5835 5839 5841 5844 5847 5849 5850 5852 5855 5858 5861 5863 5865 5867 5870 5872 5874 5876 5878 5880 5881 5883 5885 5887 5890 5892 5894 5895 5897 5899 5900 5902 5904 5906 5908 5909 5911 5913 5915 5917 5919 5921 5923 5924 5925 5926 5928 5929 5931 5932 5933 5934 5935 5935 5936 5936 5936 5936 5938 5938 5939 5940 5941 5942 5943 5944 5945 5945 5945 5946 5946 5946 5946 5947 5947 5947 5946
5805 5809 5812 5816 5818 5822 5826 5828 5832 5836 5838 5841 5845 5846 5847 5850 5853 5856 5858 5861 5863 5865 5867 5869 5871 5873 5875 5877 5879 5880 5882 5885 5887 5889 5890 5892 5894 5895 5897 5899 5901 5903 5905 5907 5909 5911 5913 5915 5916 5918 5920 5921 5922 5924 5925 5926 5928 5929 5930 5931 5932 5933 5933 5933 5933 5934 5935 5936 5937 5937 5938 5939 5940 5941 5942 5942 5943 5943 5943 5943 5943 5943 5944 5943 5943
5803 5806 5809 5811 5814 5818 5821 5824 5828 5832 5835 5838 5841 5843 5844 5847 5851 5854 5856 5859 5860 5862 5864 5866 5868 5871 5873 5875 5876 5878 5880 5882 5883 5885 5887 5889 5890 5892 5894 5896 5898 5900 5902 5904 5906 5908 5910 5912 5913 5915 5917 5918 5919 5921 5922 5923 5925 5926 5927 5928 5929 5930 5931 5931 5931 5932 5933 5934 5934 5935 5936 5936 5937 5938 5939 5940 5940 5940 5940 5940 5940 5940 5940 5940 5940
5799 5802 5805 5808 5811 5814 5817 5819 5823 5826 5830 5834 5838 5840 5842 5845 5849 5852 5854 5855 5856 5859 5861 5864 5866 5868 5870 5872 5873 5875 5877 5878 5880 5882 5884 5886 5888 5890 5892 5894 5895 5898 5900 5902 5903 5905 5907 5909 5910 5912 5914 5915 5917 5918 5919 5920 5922 5923 5925 5926 5927 5927 5928 5928 5929 5929 5930 5931 5931 5932 5932 5933 5934 5935 5936 5937 5937 5936 5936 5937 5937 5937 5937 5937 5937
5795 5798 5802 5805 5807 5810 5813 5816 5819 5822 5825 5830 5834 5836 5839 5844 5848 5850 5851 5851 5854 5856 5859 5861 5863 5865 5867 5869 5871 5872 5874 5876 5877 5879 5881 5883 5885 5887 5889 5891 5893 5895 5897 5899 5901 5902 5904 5906 5908 5910 5911 5913 5914 5915 5916 5917 5919 5920 5921 5923 5923 5924 5925 5925 5926 5927 5927 5928 5928 5929 5929 5930 5931 5932 5933 5933 5933 5933 5933 5934 5933 5933 5934 5934 5934
5793 5796 5799 5802 5804 5807 5810 5812 5815 5818 5822 5827 5831 5833 5837 5842 5844 5845 5846 5849 5852 5855 5857 5859 5861 5862 5864 5866 5868 5869 5871 5873 5875 5877 5879 5881 5883 5885 5887 5889 5890 5892 5894 5896 5898 5899 5901 5903 5905 5907 5908 5910 5911 5912 5913 5914 5915 5917 5918 5919 5920 5921 5921 5922 5924 5924 5925 5925 5925 5925 5926 5927 5927 5928 5929 5929 5930 5930 5930 5930 5930 5930 5930 5931 5931
5790 5793 5795 5798 5801 5803 5806 5809 5812 5815 5820 5824 5827 5831 5835 5838 5839 5841 5843 5847 5850 5852 5854 5856 5858 5859 5861 5863 5865 5867 5869 5871 5873 5875 5877 5879 5881 5883 5884 5886 5888 5890 5891 5893 5895 5897 5898 5900 5902 5904 5905 5906 5907 5908 5910 5911 5912 5913 5914 5915 5916 5917 5918 5919 5920 5921 5921 5922 5922 5922 5923 5923 5924 5924 5925 5925 5926 5926 5927 5926 5926 5926 5926 5927 5927
5787 5790 5793 5795 5797 5799 5802 5805 5809 5813 5818 5821 5825 5828 5831 5833 5835 5838 5841 5844 5847 5850 5851 5853 5855 5856 5858 5860 5862 5864 5866 5868 5870 5872 5874 5876 5878 5880 5882 5883 5885 5887 5889 5890 5892 5894 5896 5897 5899 5901 5902 5903 5904 5905 5906 5908 5909 5910 5911 5912 5912 5913 5914 5915 5916 5917 5918 5918 5918 5919 5919 5919 5920 5921 5921 5922 5922 5923 5923 5923 5923 5923 5923 5923 5923
5784 5787 5790 5792 5794 5797 5800 5803 5807 5811 5815 5819 5822 5825 5828 5830 5832 5835 5838 5841 5844 5847 5848 5850 5852 5853 5855 5857 5859 5861 5863 5865 5867 5869 5871 5873 5875 5877 5879 5881 5882 5884 5886 5888 5889 5891 5893 5895 5896 5898 5898 5899 5900 5902 5903 5905 5906 5907 5908 5908 5909 5910 5910 5911 5913 5913 5914 5914 5914 5915 5915 5916 5917 5917 5918 5918 5919 5919 5919 5919 5919 5919 5919 5919 5919
5781 5784 5787 5790 5792 5795 5797 5801 5805 5809 5812 5816 5819 5822 5825 5827 5829 5832 5835 5838 5841 5843 5845 5847 5848 5850 5852 5854 5856 5858 5860 5862 5864 5866 5868 5870 5872 5875 5877 5879 5880 5882 5883 5885 5887 5888 5890 5892 5893 5894 5895 5896 5898 5899 5900 5902 5903 5904 5904 5905 5906 5906 5907 5907 5908 5909 5909 5909 5910 5911 5912 5913 5914 5914 5914 5915 5915 5915 5915 5915 5915 5915 5915 5915 5915
5778 5781 5784 5787 5790 5792 5795 5799 5803 5807 5810 5813 5816 5819 5821 5823 5826 5829 5832 5835 5838 5840 5841 5843 5845 5847 5849 5851 5853 5855 5857 5859 5861 5863 5865 5868 5870 5872 5874 5876 5878 5879 5881 5882 5884 5885 5887 5889 5890 5891 5892 5894 5895 5896 5897 5898 5899 5900 5901 5902 5902 5903 5903 5904 5904 5905 5906 5907 5908 5909 5909 5910 5910 5911 5911 5911 5911 5911 5911 5911 5911 5911 5911 5911 5910
5775 5779 5782 5784 5787 5790 5793 5796 5800 5804 5807 5810 5813 5816 5818 5820 5823 5826 5829 5832 5834 5836 5838 5839 5841 5844 5846 5848 5850 5852 5854 5856 5858 5861 5863 5865 5867 5869 5871 5873 5875 5876 5878 5879 5881 5882 5884 5886 5887 5888 5890 5891 5892 5893 5894 5895 5896 5897 5898 5899 5899 5900 5900 5901 5902 5903 5904 5905 5905 5906 5906 5906 5907 5907 5907 5907 5907 5907 5907 5907 5907 5907 5907 5906 5906
5772 5775 5779 5781 5784 5787 5790 5793 5797 5800 5804 5807 5810 5813 5815 5818 5820 5823 5826 5829 5830 5832 5834 5836 5838 5840 5842 5844 5846 5848 5851 5853 5855 5857 5860 5862 5864 5866 5868 5870 5872 5873 5874 5876 5878 5879 5881 5882 5884 5885 5887 5888 5889 5890 5891 5892 5893 5894 5894 5895 5896 5897 5898 5898 5899 5900 5901 5902 5902 5903 5903 5903 5903 5903 5903 5904 5904 5904 5904 5904 5903 5903 5903 5902 5901